FW9150 Weather Reports


time (UTC)temp
F
wind
direction
speed
knots
gust
knots
rain 1hr
in
rain 24hr
in
rain mn
in
humidity
%
barometer
mb
20260503224025 56 135 0.0 0.0 0.00 0.00 0.00 71 1015.9
20260503223024 56 135 0.0 0.9 0.00 0.00 0.00 70 1016.1
20260503222024 56 135 0.0 0.9 0.00 0.00 0.00 71 1016.1
20260503221025 56 90 0.0 0.0 0.00 0.00 0.00 70 1016.1
20260503220026 56 135 0.0 0.9 0.00 0.00 0.00 70 1016.1
20260503215024 57 225 0.0 0.9 0.00 0.00 0.00 69 1016.1
20260503214026 57 135 0.0 0.9 0.00 0.00 0.00 70 1016.0
20260503213123 58 45 0.0 0.0 0.00 0.00 0.00 68 1015.9
20260503212124 58 35 0.9 3.5 0.00 0.00 0.00 68 1015.8
20260503211124 59 305 0.0 0.0 0.00 0.00 0.00 58 1016.0
20260503210124 59 149 2.6 5.2 0.00 0.00 0.00 39 1015.8
20260503205125 60 233 1.7 3.5 0.00 0.00 0.00 40 1015.9
20260503204125 59 166 2.6 6.1 0.00 0.00 0.00 39 1015.8
20260503203124 59 180 2.6 4.3 0.00 0.00 0.00 39 1015.8
20260503202223 59 221 1.7 3.5 0.00 0.00 0.00 39 1015.9
20260503201226 59 195 2.6 3.5 0.00 0.00 0.00 37 1015.8
20260503200226 60 199 4.3 9.6 0.00 0.00 0.00 37 1016.0
20260503195226 61 173 3.5 5.2 0.00 0.00 0.00 35 1015.9
20260503191224 61 229 2.6 5.2 0.00 0.00 0.00 35 1016.0
20260503190225 62 194 5.2 9.6 0.00 0.00 0.00 35 1016.0
20260503185225 62 238 0.9 2.6 0.00 0.00 0.00 35 1016.1
20260503184224 62 172 3.5 6.1 0.00 0.00 0.00 36 1016.2
20260503183224 61 180 1.7 2.6 0.00 0.00 0.00 37 1016.4
20260503182224 61 217 0.9 1.7 0.00 0.00 0.00 37 1016.3
20260503181225 61 177 1.7 3.5 0.00 0.00 0.00 39 1016.4
20260503180225 61 135 0.9 3.5 0.00 0.00 0.00 38 1016.3
20260503175225 61 155 2.6 3.5 0.00 0.00 0.00 40 1016.4
20260503174225 60 184 0.9 1.7 0.00 0.00 0.00 46 1016.4
20260503172225 59 149 1.7 2.6 0.00 0.00 0.00 52 1016.5
20260503171323 58 225 0.0 0.0 0.00 0.00 0.00 52 1016.4
20260503170423 57 180 2.6 4.3 0.00 0.00 0.00 61 1016.4
20260503150525 50 157 0.0 0.0 0.00 0.00 0.00 72 1015.9
20260503130526 46 157 0.0 0.0 0.00 0.00 0.00 76 1015.2
20260503110723 47 157 0.0 0.0 0.00 0.00 0.00 86 1015.7
20260503081122 50 157 0.0 0.0 0.00 0.00 0.00 82 1016.9
20260503080124 50 157 0.0 0.0 0.00 0.00 0.00 81 1017.0
20260503072126 50 157 0.0 0.0 0.00 0.00 0.00 82 1017.4
20260503071224 50 157 0.0 0.0 0.00 0.00 0.00 81 1017.4
20260503070225 50 157 0.0 0.0 0.00 0.00 0.00 82 1017.6
20260503054521 50 157 0.0 0.0 0.00 0.00 0.00 87 1017.8
20260503053522 50 157 0.0 0.0 0.00 0.00 0.00 85 1017.9
20260503052620 51 157 0.0 0.0 0.00 0.00 0.00 84 1018.0
20260503051621 51 157 0.0 0.0 0.00 0.00 0.00 84 1018.0
20260503050620 51 157 0.0 0.0 0.00 0.00 0.00 85 1018.1
20260503045622 52 157 0.0 0.0 0.00 0.00 0.00 84 1018.0
20260503044622 52 157 0.0 0.0 0.00 0.00 0.00 83 1018.0
20260503043722 52 157 0.0 0.0 0.00 0.00 0.00 83 1017.8
20260503042738 53 157 0.0 0.0 0.00 0.00 0.00 82 1017.8
20260503041721 53 157 0.0 0.0 0.00 0.00 0.00 81 1017.8
20260503035822 54 157 0.0 0.0 0.00 0.00 0.00 81 1017.6
20260503034836 55 157 0.0 0.0 0.00 0.00 0.00 80 1017.6
20260503032921 56 157 0.0 0.0 0.00 0.00 0.00 76 1017.5
20260503032020 56 157 0.0 0.0 0.00 0.00 0.00 77 1017.5
20260503031020 57 157 0.0 0.0 0.00 0.00 0.00 75 1017.4
20260503030021 57 157 0.0 0.0 0.00 0.00 0.00 73 1017.4
20260503025119 58 157 0.0 0.0 0.00 0.00 0.00 70 1017.4
20260503024120 58 157 0.0 0.0 0.00 0.00 0.00 69 1017.4
20260503023121 59 157 0.0 0.0 0.00 0.00 0.00 65 1017.3
20260503020221 60 157 0.0 0.0 0.00 0.00 0.00 60 1017.4
20260503015321 60 157 0.0 0.9 0.00 0.00 0.00 57 1017.4
20260503014419 60 183 0.0 0.9 0.00 0.00 0.00 55 1017.4
20260503013421 60 225 0.0 1.7 0.00 0.00 0.00 52 1017.4
20260503011521 61 157 0.0 0.9 0.00 0.00 0.00 51 1017.6
20260503005619 62 217 0.9 1.7 0.00 0.00 0.00 48 1017.6
20260503004622 63 135 0.9 2.6 0.00 0.00 0.00 46 1017.6
20260503003620 63 153 1.7 3.5 0.00 0.00 0.00 44 1017.4
20260503002622 63 202 1.7 4.3 0.00 0.00 0.00 42 1017.6
20260503001720 64 250 1.7 2.6 0.00 0.00 0.00 44 1017.6
20260503000720 64 177 3.5 5.2 0.00 0.00 0.00 43 1017.8
20260502235723 64 226 0.9 2.6 0.00 0.00 0.00 44 1017.6
20260502234722 63 156 1.7 3.5 0.00 0.00 0.00 44 1017.7
20260502233819 63 180 1.7 4.3 0.00 0.00 0.00 43 1018.0
20260502232821 63 216 0.9 1.7 0.00 0.00 0.00 45 1018.0
20260502231822 63 241 1.7 4.3 0.00 0.00 0.00 45 1018.0
20260502230822 64 245 3.5 4.3 0.00 0.00 0.00 44 1018.2
20260502225920 64 208 3.5 6.1 0.00 0.00 0.00 44 1018.2